Погода в Курске

Хотите узнать прогноз погоды в Курске? Тогда Вам сюда: Погода в Курске

Поиск расширенной информации на нашем сайте:

Полезная информация:

Новости сайта



14.11.2019
Обновлён Долгосрочный прогноз погоды по России и другим странам хСССР на ноябрь-декабрь 2019 года.
Опубликованы прогностические карты: Предварительный прогноз на декабрь 2019 года, Предварительный прогноз на январь 2020 года, Предварительная схема синоптических процессов на декабрь 2019 г..

11.11.2019
Обновлены Долгосрочный прогноз погоды по России и другим странам хСССР на ноябрь-декабрь 2019 года и Предварительный прогноз на зиму 2019/2020 годов

04.11.2019
Опубликован Долгосрочный прогноз погоды по России и другим странам хСССР на ноябрь 2019 года
Сравнение прогнозируемой аномалии приземной температуры воздуха на ноябрь 2019 года по разным моделям
Предварительный прогноз на зиму 2019/2020 года




Погода в Курске - сегодня

Время (UTC), дата Ветер
(°,м/с) 
Видим.   Явления Облачность Т
(°С)
Тd
(°С)
f(%) Тe
(°С)
Pmin
(гПа)
dP
(гПа)
Po
(мм)
O2
(г/м3)
Тmin Tmax R s Состояние
почвы
00 18.11.19 160 (Ю) 0200 м  слаб. морось{туман}  ?/?  
+0.4 +0.4 100 +1  1031.1  -0.6  750  302           
03 18.11.19 180 (Ю) 0500 м  туман{морось}  ?/?  
+0.7 +0.7 100 +1  1030.3  -0.8  749  301  -0.1    0.0     
06 18.11.19 130 (ЮВ) 1000 м  слаб. морось{туман}  10/10 200 м 
[St]
+1.3 +1.3 100 +1  1030.2  749  300  +0.1    0.0    влажная 
09 18.11.19 130 (ЮВ) 0200 м  туман{морось}  ?/?  
+1.8 +1.8 100 +1  1030  -0.2  749  300           
12 18.11.19 120 (ЮВ) 0200 м  туман{морось}  ?/?  
+1.6 +1.6 100 +2  1029.3  -0.6  749  300           
15 18.11.19 100 (В) 0050 м  слаб. морось{туман}  ?/?  
+1.7 +1.7 100 +2  1029.2  -0.1  749  299      0.0     
18 18.11.19 140 (ЮВ) 0050 м  туман{морось}  ?/?  
+0.7 +0.7 100 1029.6  0.3  749  301    +2.1  0.0     
21 18.11.19 140 (ЮВ) 0050 м  туман{морось}  ?/?  
+0 +0 100 -1  1029.9  0.2  749  302           
00 19.11.19 100 (В) 0200 м  туман{морось}  ?/?  
-0.1 -0.1 100 +1  1030.2  0.3  749  302           
03 19.11.19 040 (СВ) 0500 м  туман{морось}  ?/?  
-0.4 -0.4 100 1030.3  749  302  -0.4    0.3     
06 19.11.19 110 (В) 0500 м  туман{морось}  ?/?  
-1 -1 100 1030.9  0.4  750  303  -1    0.3    влажная 
09 19.11.19 150 (ЮВ) 4000 м  снежные зёрна{морось, туман} [диам. гололёда 1 мм]  10/10 300 м 
[St]
-1.1 -1.1 100 -2  1031.9  0.8  750  304           
12 19.11.19 110 (В) 2000 м  дымка{снег, морось}  10/10 300 м 
[St]
-0.9 -0.9 100 1031.6  0.1  750  303           
15 19.11.19 090 (В) 0500 м  туман  ?/?  
-0.8 -0.8 100 1031.9  0.3  750  303      0.1     
18 19.11.19 100 (В) 4000 м  слаб. переохл. морось (гололёд){туман} [диам. гололёда 0 мм]  10/10 200 м 
[St]
-1 -1 100 -2  1032.4  0.5  751  304    -0.8  0.1     
21 19.11.19 070 (В) 4000 м  снежные зёрна{морось} [диам. гололёда 0 мм]  10/10 300 м 
[St]
-1 -1 100 1032.8  0.4  751  304           
00 20.11.19 110 (В) 4000 м  дымка{снег, морось}  10/10 600 м 
[Sc]
-1 -1 100 -3  1033.2  0.4  751  304           
03 20.11.19 080 (В) 4000 м  слаб. снег  10/10 300 м 
[Frnb|Ns]
-1 -1 100 1033.7  0.5  752  304  -1.2    0.7     
06 20.11.19 100 (В) 1000 м  дымка{снег}  10/10 200 м 
[St]
+0 +0 100 -1  1034.5  0.9  752  303  -1.2    0.7  <0.5  равномерный
мокрый или
старый снег
100% 
09 20.11.19 100 (В) 0200 м  слаб. морось{туман}  ?/?  
+1.6 +1.6 100 1035.2  0.8  753  301           
12 20.11.19 100 (В) 4000 м  дымка{морось, туман}  10/10 600 м 
[Sc]
+3.1 +3.1 100 +1  1036  0.9  754  300           
15 20.11.19 100 (В) 10 км    10/10 600 м 
[Sc]
+3.7 +3.6 99 +2  1037.5  1.5  755  300      0.0     
18 20.11.19 100 (В) 5{10}  10 км    10/10 600 м 
[Sc]
+2.6 +2.4 99 1039  1.3  756  301    +3.8  0.0     
21 20.11.19 100 (В) 5-10{12}  10 км    10/10 600 м 
[Sc]
+0 -0.2 99 -3  1041.1  1.7  757  305           
00 21.11.19 100 (В) 5{10}  10 км    10/10 600 м 
[Sc]
-3.1 -4.2 92 -7  1043.1  1.6  758  310           
Время (UTC), дата Ветер
(°,м/с) 
Видим.   Явления Облачность Т
(°С)
Тd
(°С)
f(%) Тe
(°С)
Pmin
(гПа)
dP
(гПа)
Po
(мм)
O2
(г/м3)
Тmin Tmax R s Состояние
почвы

Для получения пояснительной информации подведите курсор к названию столбца.

ПОГОДА в Курске - архив

Всё, что Вы хотите узнать о погоде в Курске - удобно и подробно!

Выберите нужную дату (начиная с 1 января 2019* года) и нажмите кнопку "Найти".
Будут отображены архивные сводки погоды по пункту Курск, начиная с указанной даты.


Отображать данные в формате CSV (для использования в таблицах Excel)


Внимание! Наш архив погоды предназначен исключительно для личного некоммерческого использования в познавательных целях. Если Вам необходимы официальные справки о состоянии погоды (для производственных, юридических, коммерческих и т.п. целей), обращайтесь в органы Росгидромета.

*Примечание: данная дата относится к архиву по метеостанциям СССР (Россия, СНГ, Балтия).
Архив по метеостанциям Зарубежной Европы и Азии (кроме Китая) хранится 10 дней, по другим регионам земного шара (Китай, Африка, Америка, Австралия, Океания) - 1 день.

Курск - район местоположения метеостанции


Название, широта, долгота, высота метеостанции:
Курск 51.8°ш. 36.2°д. 247 м над ур. моря [Российская Федерация]

Дополнительная информация

В oтличие oт бoльшинства пoгoдных сайтoв мы публикуем пoдрoбную метеoинфoрмацию в детальнoм прoфессиoнальнoм фoрмате.

Характеристики температуры и влажнoсти вoздуха измеряются на высoте 2 м в тени вдали oт зданий и деревьев.
Скoрoсть ветра измеряется на высoте 10 м (на урoвне рoста челoвека скoрoсть ветра ниже в 1.5-2 раза). Если метеoстанция нахoдится в гoрoде или в лесу, тo скoрoсть ветра занижена на 2-4 м/с пo сравнению с oткрытым местoм. Скoрoсть ветра над акватoриями крупных рек и oзёр, а также на вершинах хoлмoв на 2-5 м/с выше, чем в oбычных услoвиях.
Атмoсфернoе давление в разных тoчках местнoсти мoжет значительнo oтличаться oт давления на метеoстанции, в зависимoсти oт услoвий рельефа (при пoдъёме на 10 м давление пoнижается примернo на 1 мм рт.ст.).